status,avgMeasuredTime,avgSpeed,extID,medianMeasuredTime,TIMESTAMP,vehicleCount,_id,REPORT_ID
OK,132,16,619,132,2014-08-01T07:50:00,3,20746171,193159
OK,95,23,619,95,2014-08-01T07:55:00,1,20746343,193159
OK,95,23,619,95,2014-08-01T08:00:00,1,20746674,193159
OK,95,23,619,95,2014-08-01T08:05:00,0,20747123,193159
OK,95,23,619,95,2014-08-01T08:10:00,0,20747496,193159
OK,95,23,619,95,2014-08-01T08:15:00,0,20747945,193159
OK,95,23,619,95,2014-08-01T08:20:00,0,20748394,193159
OK,95,23,619,95,2014-08-01T08:25:00,0,20748843,193159
OK,95,23,619,95,2014-08-01T08:30:00,0,20749292,193159
OK,95,23,619,95,2014-08-01T08:35:00,0,20749741,193159
OK,51,43,619,51,2014-08-01T08:40:00,1,20750190,193159
OK,51,43,619,51,2014-08-01T08:45:00,1,20750639,193159
OK,51,43,619,51,2014-08-01T08:50:00,0,20751088,193159
OK,51,43,619,51,2014-08-01T08:55:00,0,20751537,193159
OK,51,43,619,51,2014-08-01T09:00:00,0,20751986,193159
OK,51,43,619,51,2014-08-01T09:05:00,0,20752435,193159
OK,51,43,619,51,2014-08-01T09:10:00,0,20752884,193159
OK,118,18,619,118,2014-08-01T09:15:00,1,20753333,193159
OK,118,18,619,118,2014-08-01T09:20:00,0,20753782,193159
OK,118,18,619,118,2014-08-01T09:25:00,0,20754231,193159
OK,118,18,619,118,2014-08-01T09:30:00,0,20754680,193159
OK,118,18,619,118,2014-08-01T09:35:00,0,20755129,193159
OK,118,18,619,118,2014-08-01T09:40:00,0,20755578,193159
OK,98,22,619,98,2014-08-01T09:45:00,1,20756027,193159
OK,110,19,619,110,2014-08-01T09:50:00,2,20756476,193159
OK,123,17,619,123,2014-08-01T09:55:00,1,20756925,193159
OK,123,17,619,123,2014-08-01T10:00:00,0,20757374,193159
OK,123,17,619,123,2014-08-01T10:05:00,0,20757823,193159
OK,117,18,619,117,2014-08-01T10:10:00,1,20758272,193159
OK,98,22,619,98,2014-08-01T10:15:00,2,20758721,193159
OK,80,27,619,80,2014-08-01T10:20:00,0,20759170,193159
OK,80,27,619,80,2014-08-01T10:25:00,0,20759619,193159
OK,80,27,619,80,2014-08-01T10:30:00,0,20760068,193159
OK,80,27,619,80,2014-08-01T10:35:00,0,20760517,193159
OK,80,27,619,80,2014-08-01T10:40:00,0,20760966,193159
OK,54,40,619,54,2014-08-01T10:45:00,2,20761415,193159
OK,54,40,619,54,2014-08-01T10:50:00,2,20761864,193159
OK,158,13,619,158,2014-08-01T10:55:00,1,20762313,193159
OK,158,13,619,158,2014-08-01T11:00:00,1,20762762,193159
OK,158,13,619,158,2014-08-01T11:05:00,0,20763211,193159
OK,158,13,619,158,2014-08-01T11:10:00,0,20763660,193159
OK,158,13,619,158,2014-08-01T11:15:00,0,20764109,193159
OK,158,13,619,158,2014-08-01T11:20:00,0,20764557,193159
OK,61,36,619,61,2014-08-01T11:25:00,1,20765006,193159
OK,61,36,619,61,2014-08-01T11:30:00,1,20765455,193159
OK,61,36,619,61,2014-08-01T11:35:00,0,20765904,193159
OK,61,36,619,61,2014-08-01T11:40:00,0,20766353,193159
OK,61,36,619,61,2014-08-01T11:45:00,0,20766802,193159
OK,61,36,619,61,2014-08-01T11:50:00,0,20767251,193159
OK,61,36,619,61,2014-08-01T11:55:00,0,20767700,193159
OK,103,21,619,103,2014-08-01T12:00:00,1,20768149,193159
OK,103,21,619,103,2014-08-01T12:05:00,1,20768598,193159
OK,103,21,619,103,2014-08-01T12:10:00,0,20769047,193159
OK,103,21,619,103,2014-08-01T12:15:00,0,20769496,193159
OK,103,21,619,103,2014-08-01T12:20:00,0,20769945,193159
OK,103,21,619,103,2014-08-01T12:25:00,0,20770394,193159
OK,103,21,619,103,2014-08-01T12:30:00,0,20770843,193159
OK,103,21,619,103,2014-08-01T12:35:00,0,20771292,193159
OK,86,25,619,86,2014-08-01T12:40:00,1,20771741,193159
OK,115,19,619,115,2014-08-01T12:45:00,3,20772190,193159
OK,60,36,619,60,2014-08-01T12:50:00,1,20772639,193159
OK,60,36,619,60,2014-08-01T12:55:00,1,20773088,193159
OK,60,36,619,60,2014-08-01T13:00:00,0,20773537,193159
OK,60,36,619,60,2014-08-01T13:05:00,0,20773986,193159
OK,60,36,619,60,2014-08-01T13:10:00,0,20774435,193159
OK,60,36,619,60,2014-08-01T13:15:00,0,20774884,193159
OK,60,36,619,60,2014-08-01T13:20:00,0,20775333,193159
OK,60,36,619,60,2014-08-01T13:25:00,0,20775782,193159
OK,60,36,619,60,2014-08-01T13:30:00,0,20776231,193159
OK,60,36,619,60,2014-08-01T13:35:00,0,20776680,193159
OK,60,36,619,60,2014-08-01T13:40:00,0,20777129,193159
OK,60,36,619,60,2014-08-01T13:45:00,0,20777578,193159
OK,60,36,619,60,2014-08-01T13:50:00,0,20778027,193159
OK,60,36,619,60,2014-08-01T13:55:00,0,20778476,193159
OK,60,36,619,60,2014-08-01T14:00:00,0,20778925,193159
OK,60,36,619,60,2014-08-01T14:05:00,0,20779374,193159
OK,60,36,619,60,2014-08-01T14:10:00,0,20779823,193159
OK,60,36,619,60,2014-08-01T14:15:00,0,20780272,193159
OK,60,36,619,60,2014-08-01T14:20:00,0,20780721,193159
OK,60,36,619,60,2014-08-01T14:25:00,0,20781170,193159
OK,60,36,619,60,2014-08-01T14:30:00,0,20781619,193159
OK,160,13,619,160,2014-08-01T14:35:00,1,20782068,193159
OK,160,13,619,160,2014-08-01T14:40:00,1,20782517,193159
OK,160,13,619,160,2014-08-01T14:45:00,0,20782966,193159
OK,123,17,619,123,2014-08-01T14:50:00,1,20783415,193159
OK,123,17,619,123,2014-08-01T14:55:00,1,20783864,193159
OK,123,17,619,123,2014-08-01T15:00:00,0,20784313,193159
OK,123,17,619,123,2014-08-01T15:05:00,0,20784762,193159
OK,123,17,619,123,2014-08-01T15:10:00,0,20785211,193159
OK,123,17,619,123,2014-08-01T15:15:00,0,20785660,193159
OK,123,17,619,123,2014-08-01T15:20:00,0,20786109,193159
OK,123,17,619,123,2014-08-01T15:25:00,0,20786558,193159
OK,130,16,619,130,2014-08-01T15:30:00,1,20787007,193159
OK,130,16,619,130,2014-08-01T15:35:00,1,20787456,193159
OK,136,16,619,136,2014-08-01T15:40:00,1,20787905,193159
OK,136,16,619,136,2014-08-01T15:45:00,1,20788354,193159
OK,136,16,619,136,2014-08-01T15:50:00,0,20788803,193159
OK,136,16,619,136,2014-08-01T15:55:00,0,20789252,193159
OK,136,16,619,136,2014-08-01T16:00:00,0,20789701,193159
OK,103,21,619,103,2014-08-01T16:05:00,1,20790150,193159
OK,103,21,619,103,2014-08-01T16:10:00,3,20790599,193159
OK,79,27,619,79,2014-08-01T16:15:00,2,20791048,193159
OK,79,27,619,79,2014-08-01T16:20:00,0,20791497,193159
OK,79,27,619,79,2014-08-01T16:25:00,0,20791946,193159
OK,79,27,619,79,2014-08-01T16:30:00,0,20792395,193159
OK,79,27,619,79,2014-08-01T16:35:00,0,20792844,193159
OK,79,27,619,79,2014-08-01T16:40:00,0,20793293,193159
OK,79,27,619,79,2014-08-01T16:45:00,0,20793742,193159
OK,79,27,619,79,2014-08-01T16:50:00,0,20794191,193159
OK,79,27,619,79,2014-08-01T16:55:00,0,20794640,193159
OK,79,27,619,79,2014-08-01T17:00:00,0,20795089,193159
OK,79,27,619,79,2014-08-01T17:05:00,0,20795538,193159
OK,132,16,619,132,2014-08-01T17:10:00,1,20795987,193159
OK,132,16,619,132,2014-08-01T17:15:00,1,20796436,193159
OK,132,16,619,132,2014-08-01T17:20:00,0,20796885,193159
OK,132,16,619,132,2014-08-01T17:25:00,0,20797334,193159
OK,132,16,619,132,2014-08-01T17:30:00,0,20797783,193159
OK,132,16,619,132,2014-08-01T17:35:00,0,20798232,193159
OK,132,16,619,132,2014-08-01T17:40:00,0,20798681,193159
OK,132,16,619,132,2014-08-01T17:45:00,0,20799130,193159
OK,132,16,619,132,2014-08-01T17:50:00,0,20799579,193159
OK,132,16,619,132,2014-08-01T17:55:00,0,20800028,193159
OK,132,16,619,132,2014-08-01T18:00:00,0,20800477,193159
OK,132,16,619,132,2014-08-01T18:05:00,0,20800926,193159
OK,132,16,619,132,2014-08-01T18:10:00,0,20801375,193159
OK,132,16,619,132,2014-08-01T18:15:00,0,20801824,193159
OK,132,16,619,132,2014-08-01T18:20:00,0,20802273,193159
OK,132,16,619,132,2014-08-01T18:25:00,0,20802722,193159
OK,132,16,619,132,2014-08-01T18:30:00,0,20803171,193159
OK,132,16,619,132,2014-08-01T18:35:00,0,20803620,193159
OK,126,17,619,126,2014-08-01T18:40:00,1,20804069,193159
OK,126,17,619,126,2014-08-01T18:45:00,1,20804518,193159
OK,126,17,619,126,2014-08-01T18:50:00,0,20804967,193159
OK,156,14,619,156,2014-08-01T18:55:00,1,20805416,193159
OK,156,14,619,156,2014-08-01T19:00:00,0,20805865,193159
OK,156,14,619,156,2014-08-01T19:05:00,0,20806314,193159
OK,113,19,619,113,2014-08-01T19:10:00,1,20806763,193159
OK,113,19,619,113,2014-08-01T19:15:00,1,20807212,193159
OK,113,19,619,113,2014-08-01T19:20:00,0,20807661,193159
OK,113,19,619,113,2014-08-01T19:25:00,0,20808110,193159
OK,113,19,619,113,2014-08-01T19:30:00,0,20808559,193159
OK,85,25,619,85,2014-08-01T19:35:00,1,20809008,193159
OK,85,25,619,85,2014-08-01T19:40:00,1,20809457,193159
OK,75,29,619,75,2014-08-01T19:45:00,1,20809906,193159
OK,75,29,619,75,2014-08-01T19:50:00,0,20810355,193159
OK,75,29,619,75,2014-08-01T19:55:00,0,20810804,193159
OK,75,29,619,75,2014-08-01T20:00:00,0,20811252,193159
OK,75,29,619,75,2014-08-01T20:05:00,0,20811425,193159
OK,75,29,619,75,2014-08-01T20:10:00,0,20811626,193159
OK,75,29,619,75,2014-08-01T20:15:00,0,20811833,193159
OK,75,29,619,75,2014-08-01T20:20:00,0,20812041,193159
OK,75,29,619,75,2014-08-01T20:25:00,0,20812262,193159
OK,75,29,619,75,2014-08-01T20:30:00,0,20812474,193159
OK,75,29,619,75,2014-08-01T20:35:00,0,20812684,193159
OK,75,29,619,75,2014-08-01T20:40:00,0,20812886,193159
OK,75,29,619,75,2014-08-01T20:45:00,0,20813092,193159
OK,75,29,619,75,2014-08-01T20:50:00,0,20813303,193159
OK,75,29,619,75,2014-08-01T20:55:00,0,20813533,193159
OK,75,29,619,75,2014-08-01T21:00:00,0,20813771,193159
OK,50,43,619,50,2014-08-01T21:05:00,1,20813949,193159
OK,142,15,619,142,2014-08-01T21:10:00,1,20814188,193159
OK,142,15,619,142,2014-08-01T21:15:00,1,20814385,193159
OK,142,15,619,142,2014-08-01T21:20:00,0,20814590,193159
OK,142,15,619,142,2014-08-01T21:25:00,0,20814821,193159
OK,142,15,619,142,2014-08-01T21:30:00,0,20815095,193159
OK,142,15,619,142,2014-08-01T21:35:00,0,20815329,193159
OK,142,15,619,142,2014-08-01T21:40:00,0,20815552,193159
OK,142,15,619,142,2014-08-01T21:45:00,0,20815789,193159
OK,142,15,619,142,2014-08-01T21:50:00,0,20816030,193159
OK,142,15,619,142,2014-08-01T21:55:00,0,20816265,193159
OK,142,15,619,142,2014-08-01T22:00:00,0,20816533,193159
OK,142,15,619,142,2014-08-01T22:05:00,0,20816982,193159
OK,142,15,619,142,2014-08-01T22:10:00,0,20817304,193159
OK,142,15,619,142,2014-08-01T22:15:00,0,20817733,193159
OK,142,15,619,142,2014-08-01T22:20:00,0,20818023,193159
OK,142,15,619,142,2014-08-01T22:25:00,0,20818339,193159
OK,142,15,619,142,2014-08-01T22:30:00,0,20818673,193159
OK,142,15,619,142,2014-08-01T22:35:00,0,20818979,193159
OK,142,15,619,142,2014-08-01T22:40:00,0,20819157,193159
OK,142,15,619,142,2014-08-01T22:45:00,0,20819445,193159
OK,142,15,619,142,2014-08-01T22:50:00,0,20819680,193159
OK,142,15,619,142,2014-08-01T22:55:00,0,20819933,193159
OK,142,15,619,142,2014-08-01T23:00:00,0,20820109,193159
OK,142,15,619,142,2014-08-01T23:05:00,0,20820362,193159
OK,142,15,619,142,2014-08-01T23:10:00,0,20820592,193159
OK,142,15,619,142,2014-08-01T23:15:00,0,20820780,193159
OK,142,15,619,142,2014-08-01T23:20:00,0,20821034,193159
OK,142,15,619,142,2014-08-01T23:25:00,0,20821209,193159
OK,142,15,619,142,2014-08-01T23:30:00,0,20821434,193159
OK,142,15,619,142,2014-08-01T23:35:00,0,20821679,193159
OK,142,15,619,142,2014-08-01T23:40:00,0,20821858,193159
OK,142,15,619,142,2014-08-01T23:45:00,0,20822081,193159
OK,142,15,619,142,2014-08-01T23:50:00,0,20822348,193159
OK,142,15,619,142,2014-08-01T23:55:00,0,20822674,193159
OK,142,15,619,142,2014-08-02T00:00:00,0,20822972,193159
OK,142,15,619,142,2014-08-02T00:05:00,0,20823421,193159
OK,142,15,619,142,2014-08-02T00:10:00,0,20823870,193159
OK,142,15,619,142,2014-08-02T00:15:00,0,20824319,193159
OK,142,15,619,142,2014-08-02T00:20:00,0,20824768,193159
OK,142,15,619,142,2014-08-02T00:25:00,0,20825217,193159
OK,142,15,619,142,2014-08-02T00:30:00,0,20825666,193159
OK,142,15,619,142,2014-08-02T00:35:00,0,20826115,193159
OK,142,15,619,142,2014-08-02T00:40:00,0,20826564,193159
OK,142,15,619,142,2014-08-02T00:45:00,0,20827013,193159
OK,142,15,619,142,2014-08-02T00:50:00,0,20827462,193159
OK,142,15,619,142,2014-08-02T00:55:00,0,20827911,193159
OK,142,15,619,142,2014-08-02T01:00:00,0,20828360,193159
OK,142,15,619,142,2014-08-02T01:05:00,0,20828809,193159
OK,142,15,619,142,2014-08-02T01:10:00,0,20829258,193159
OK,142,15,619,142,2014-08-02T01:15:00,0,20829707,193159
OK,142,15,619,142,2014-08-02T01:20:00,0,20830156,193159
OK,142,15,619,142,2014-08-02T01:25:00,0,20830605,193159
OK,142,15,619,142,2014-08-02T01:30:00,0,20831054,193159
OK,142,15,619,142,2014-08-02T01:35:00,0,20831503,193159
OK,142,15,619,142,2014-08-02T01:40:00,0,20831952,193159
OK,142,15,619,142,2014-08-02T01:45:00,0,20832401,193159
OK,142,15,619,142,2014-08-02T01:50:00,0,20832850,193159
OK,142,15,619,142,2014-08-02T01:55:00,0,20833299,193159
OK,142,15,619,142,2014-08-02T02:00:00,0,20833748,193159
OK,142,15,619,142,2014-08-02T02:05:00,0,20834197,193159
OK,142,15,619,142,2014-08-02T02:10:00,0,20834646,193159
OK,142,15,619,142,2014-08-02T02:15:00,0,20835095,193159
OK,142,15,619,142,2014-08-02T02:20:00,0,20835544,193159
OK,142,15,619,142,2014-08-02T02:25:00,0,20835993,193159
OK,142,15,619,142,2014-08-02T02:30:00,0,20836442,193159
OK,142,15,619,142,2014-08-02T02:35:00,0,20836891,193159
OK,142,15,619,142,2014-08-02T02:40:00,0,20837340,193159
OK,142,15,619,142,2014-08-02T02:45:00,0,20837789,193159
OK,142,15,619,142,2014-08-02T02:50:00,0,20838238,193159
OK,142,15,619,142,2014-08-02T02:55:00,0,20838687,193159
OK,142,15,619,142,2014-08-02T03:00:00,0,20839136,193159
OK,142,15,619,142,2014-08-02T03:05:00,0,20839585,193159
OK,142,15,619,142,2014-08-02T03:10:00,0,20840034,193159
OK,142,15,619,142,2014-08-02T03:15:00,0,20840483,193159
OK,142,15,619,142,2014-08-02T03:20:00,0,20840932,193159
OK,142,15,619,142,2014-08-02T03:25:00,0,20841381,193159
OK,142,15,619,142,2014-08-02T03:30:00,0,20841830,193159
OK,142,15,619,142,2014-08-02T03:35:00,0,20842279,193159
OK,142,15,619,142,2014-08-02T03:40:00,0,20842728,193159
OK,142,15,619,142,2014-08-02T03:45:00,0,20843177,193159
OK,142,15,619,142,2014-08-02T03:50:00,0,20843626,193159
OK,142,15,619,142,2014-08-02T03:55:00,0,20844075,193159
OK,142,15,619,142,2014-08-02T04:00:00,0,20844524,193159
OK,142,15,619,142,2014-08-02T04:05:00,0,20844655,193159
OK,142,15,619,142,2014-08-02T04:10:00,0,20844985,193159
OK,142,15,619,142,2014-08-02T04:15:00,0,20845165,193159
OK,142,15,619,142,2014-08-02T04:20:00,0,20845521,193159
OK,142,15,619,142,2014-08-02T04:25:00,0,20845889,193159
OK,142,15,619,142,2014-08-02T04:30:00,0,20846077,193159
OK,142,15,619,142,2014-08-02T04:35:00,0,20846444,193159
OK,142,15,619,142,2014-08-02T04:40:00,0,20846827,193159
OK,142,15,619,142,2014-08-02T04:45:00,0,20847086,193159
OK,142,15,619,142,2014-08-02T04:50:00,0,20847452,193159
OK,142,15,619,142,2014-08-02T04:55:00,0,20847809,193159
OK,142,15,619,142,2014-08-02T05:00:00,0,20848169,193159
OK,142,15,619,142,2014-08-02T05:05:00,0,20848335,193159
OK,142,15,619,142,2014-08-02T05:10:00,0,20848687,193159
OK,142,15,619,142,2014-08-02T05:15:00,0,20848879,193159
OK,142,15,619,142,2014-08-02T05:20:00,0,20849223,193159
OK,142,15,619,142,2014-08-02T05:25:00,0,20849541,193159
OK,142,15,619,142,2014-08-02T05:30:00,0,20849748,193159
OK,142,15,619,142,2014-08-02T05:35:00,0,20850020,193159
OK,142,15,619,142,2014-08-02T05:40:00,0,20850313,193159
OK,142,15,619,142,2014-08-02T05:45:00,0,20850614,193159
OK,142,15,619,142,2014-08-02T05:50:00,0,20850972,193159
OK,142,15,619,142,2014-08-02T05:55:00,0,20851226,193159
OK,142,15,619,142,2014-08-02T06:00:00,0,20851529,193159
OK,142,15,619,142,2014-08-02T06:05:00,0,20851978,193159
OK,142,15,619,142,2014-08-02T06:10:00,0,20852427,193159
OK,122,18,619,122,2014-08-02T06:15:00,1,20852876,193159
OK,122,18,619,122,2014-08-02T06:20:00,0,20853325,193159
OK,122,18,619,122,2014-08-02T06:25:00,0,20853774,193159
OK,131,16,619,131,2014-08-02T06:30:00,1,20854223,193159
OK,131,16,619,131,2014-08-02T06:35:00,0,20854672,193159
OK,131,16,619,131,2014-08-02T06:40:00,0,20855121,193159
OK,131,16,619,131,2014-08-02T06:45:00,0,20855570,193159
OK,131,16,619,131,2014-08-02T06:50:00,0,20856019,193159
OK,131,16,619,131,2014-08-02T06:55:00,0,20856468,193159
OK,131,16,619,131,2014-08-02T07:00:00,0,20856917,193159
OK,131,16,619,131,2014-08-02T07:05:00,0,20857366,193159
OK,131,16,619,131,2014-08-02T07:10:00,0,20857815,193159
OK,131,16,619,131,2014-08-02T07:15:00,0,20858264,193159
OK,131,16,619,131,2014-08-02T07:20:00,0,20858713,193159
OK,131,16,619,131,2014-08-02T07:25:00,0,20859162,193159
OK,131,16,619,131,2014-08-02T07:30:00,0,20859611,193159
OK,131,16,619,131,2014-08-02T07:35:00,0,20860060,193159
OK,131,16,619,131,2014-08-02T07:40:00,0,20860509,193159
OK,131,16,619,131,2014-08-02T07:45:00,0,20860958,193159
OK,131,16,619,131,2014-08-02T07:50:00,0,20861407,193159
OK,131,16,619,131,2014-08-02T07:55:00,0,20861856,193159
OK,80,27,619,80,2014-08-02T08:00:00,3,20862305,193159
OK,80,27,619,80,2014-08-02T08:05:00,3,20862754,193159
OK,95,23,619,95,2014-08-02T08:10:00,1,20863203,193159
OK,95,23,619,95,2014-08-02T08:15:00,1,20863652,193159
OK,95,23,619,95,2014-08-02T08:20:00,0,20864101,193159
OK,102,21,619,102,2014-08-02T08:25:00,2,20864550,193159
OK,102,21,619,102,2014-08-02T08:30:00,2,20864999,193159
OK,102,21,619,102,2014-08-02T08:35:00,0,20865448,193159
OK,102,21,619,102,2014-08-02T08:40:00,0,20865897,193159
OK,102,21,619,102,2014-08-02T08:45:00,0,20866346,193159
OK,145,15,619,145,2014-08-02T08:50:00,1,20866795,193159
OK,145,15,619,145,2014-08-02T08:55:00,1,20867244,193159
OK,145,15,619,145,2014-08-02T09:00:00,0,20867693,193159
OK,145,15,619,145,2014-08-02T09:05:00,0,20868142,193159
OK,145,15,619,145,2014-08-02T09:10:00,0,20868591,193159
OK,87,25,619,87,2014-08-02T09:15:00,2,20869040,193159
OK,87,25,619,87,2014-08-02T09:20:00,2,20869489,193159
OK,126,17,619,126,2014-08-02T09:25:00,0,20869938,193159
OK,126,17,619,126,2014-08-02T09:30:00,0,20870387,193159
OK,126,17,619,126,2014-08-02T09:35:00,0,20870836,193159
OK,126,17,619,126,2014-08-02T09:40:00,0,20871285,193159
OK,126,17,619,126,2014-08-02T09:45:00,0,20871734,193159
OK,126,17,619,126,2014-08-02T09:50:00,0,20872183,193159
OK,126,17,619,126,2014-08-02T09:55:00,0,20872632,193159
OK,126,17,619,126,2014-08-02T10:00:00,0,20873081,193159
OK,100,21,619,100,2014-08-02T10:05:00,1,20873530,193159
OK,100,21,619,100,2014-08-02T10:10:00,1,20873979,193159
OK,100,21,619,100,2014-08-02T10:15:00,0,20874428,193159
OK,100,21,619,100,2014-08-02T10:20:00,0,20874877,193159
OK,100,21,619,100,2014-08-02T10:25:00,0,20875326,193159
OK,122,18,619,122,2014-08-02T10:30:00,1,20875775,193159
OK,122,18,619,122,2014-08-02T10:35:00,1,20876224,193159
OK,88,24,619,88,2014-08-02T10:40:00,1,20876673,193159
OK,88,24,619,88,2014-08-02T10:45:00,1,20877122,193159
OK,62,35,619,62,2014-08-02T10:50:00,1,20877571,193159
OK,62,35,619,62,2014-08-02T10:55:00,1,20878020,193159
OK,62,35,619,62,2014-08-02T11:00:00,0,20878469,193159
OK,62,35,619,62,2014-08-02T11:05:00,0,20878918,193159
OK,62,35,619,62,2014-08-02T11:10:00,0,20879367,193159
OK,62,35,619,62,2014-08-02T11:15:00,0,20879816,193159
OK,62,35,619,62,2014-08-02T11:20:00,0,20880265,193159
OK,62,35,619,62,2014-08-02T11:25:00,0,20880714,193159
OK,62,35,619,62,2014-08-02T11:30:00,0,20881163,193159
OK,62,35,619,62,2014-08-02T11:35:00,0,20881612,193159
OK,62,35,619,62,2014-08-02T11:40:00,0,20882061,193159
OK,62,35,619,62,2014-08-02T11:45:00,0,20882510,193159
OK,62,35,619,62,2014-08-02T11:50:00,0,20882959,193159
OK,62,35,619,62,2014-08-02T11:55:00,0,20883408,193159
OK,62,35,619,62,2014-08-02T12:00:00,0,20883857,193159
OK,62,35,619,62,2014-08-02T12:05:00,0,20884306,193159
OK,62,35,619,62,2014-08-02T12:10:00,0,20884755,193159
OK,62,35,619,62,2014-08-02T12:15:00,0,20885204,193159
OK,62,35,619,62,2014-08-02T12:20:00,0,20885653,193159
OK,62,35,619,62,2014-08-02T12:25:00,0,20886102,193159
OK,62,35,619,62,2014-08-02T12:30:00,0,20886551,193159
OK,62,35,619,62,2014-08-02T12:35:00,1,20887000,193159
OK,62,35,619,62,2014-08-02T12:40:00,1,20887449,193159
OK,83,26,619,83,2014-08-02T12:45:00,1,20887898,193159
OK,83,26,619,83,2014-08-02T12:50:00,1,20888347,193159
OK,83,26,619,83,2014-08-02T12:55:00,0,20888796,193159
OK,47,46,619,47,2014-08-02T13:00:00,1,20889245,193159
OK,47,46,619,47,2014-08-02T13:05:00,1,20889694,193159
OK,84,26,619,84,2014-08-02T13:10:00,1,20890143,193159
OK,84,26,619,84,2014-08-02T13:15:00,0,20890592,193159
OK,84,26,619,84,2014-08-02T13:20:00,0,20891041,193159
OK,84,26,619,84,2014-08-02T13:25:00,0,20891490,193159
OK,84,26,619,84,2014-08-02T13:30:00,0,20891939,193159
OK,84,26,619,84,2014-08-02T13:35:00,0,20892388,193159
OK,84,26,619,84,2014-08-02T13:40:00,0,20892837,193159
OK,84,26,619,84,2014-08-02T13:45:00,0,20893286,193159
OK,84,26,619,84,2014-08-02T13:50:00,0,20893735,193159
OK,80,27,619,80,2014-08-02T13:55:00,1,20894184,193159
OK,80,27,619,80,2014-08-02T14:00:00,0,20894633,193159
OK,80,27,619,80,2014-08-02T14:05:00,0,20895082,193159
OK,142,15,619,142,2014-08-02T14:10:00,1,20895531,193159
OK,142,15,619,142,2014-08-02T14:15:00,1,20895980,193159
OK,142,15,619,142,2014-08-02T14:20:00,0,20896429,193159
OK,142,15,619,142,2014-08-02T14:25:00,0,20896878,193159
OK,142,15,619,142,2014-08-02T14:30:00,0,20897327,193159
OK,144,15,619,144,2014-08-02T14:35:00,1,20897776,193159
OK,144,15,619,144,2014-08-02T14:40:00,1,20898225,193159
OK,90,24,619,90,2014-08-02T14:45:00,1,20898674,193159
OK,90,24,619,90,2014-08-02T14:50:00,1,20899123,193159
OK,90,24,619,90,2014-08-02T14:55:00,0,20899572,193159
OK,90,24,619,90,2014-08-02T15:00:00,0,20900021,193159
OK,90,24,619,90,2014-08-02T15:05:00,0,20900470,193159
OK,126,17,619,126,2014-08-02T15:10:00,1,20900919,193159
OK,110,19,619,110,2014-08-02T15:15:00,2,20901368,193159
OK,94,23,619,94,2014-08-02T15:20:00,1,20901817,193159
OK,94,23,619,94,2014-08-02T15:25:00,0,20902266,193159
OK,94,23,619,94,2014-08-02T15:30:00,0,20902715,193159
OK,94,23,619,94,2014-08-02T15:35:00,0,20903164,193159
OK,94,23,619,94,2014-08-02T15:40:00,0,20903613,193159
OK,73,30,619,73,2014-08-02T15:45:00,1,20904062,193159
OK,73,30,619,73,2014-08-02T15:50:00,1,20904511,193159
OK,73,30,619,73,2014-08-02T15:55:00,0,20904960,193159
OK,80,27,619,80,2014-08-02T16:00:00,1,20905409,193159
OK,80,27,619,80,2014-08-02T16:05:00,0,20905858,193159
OK,80,27,619,80,2014-08-02T16:10:00,0,20906307,193159
OK,80,27,619,80,2014-08-02T16:15:00,0,20906756,193159
OK,80,27,619,80,2014-08-02T16:20:00,0,20907205,193159
OK,80,27,619,80,2014-08-02T16:25:00,0,20907654,193159
OK,80,27,619,80,2014-08-02T16:30:00,0,20908103,193159
OK,80,27,619,80,2014-08-02T16:35:00,0,20908552,193159
OK,80,27,619,80,2014-08-02T16:40:00,0,20909001,193159
OK,80,27,619,80,2014-08-02T16:45:00,0,20909450,193159
OK,80,27,619,80,2014-08-02T16:50:00,0,20909899,193159
OK,80,27,619,80,2014-08-02T16:55:00,0,20910348,193159
OK,80,27,619,80,2014-08-02T17:00:00,0,20910797,193159
OK,80,27,619,80,2014-08-02T17:05:00,0,20911246,193159
OK,80,27,619,80,2014-08-02T17:10:00,0,20911695,193159
OK,80,27,619,80,2014-08-02T17:15:00,0,20912144,193159
OK,109,20,619,109,2014-08-02T17:20:00,1,20912593,193159
OK,112,19,619,112,2014-08-02T17:25:00,1,20913042,193159
OK,112,19,619,112,2014-08-02T17:30:00,0,20913491,193159
OK,159,13,619,159,2014-08-02T17:35:00,1,20913940,193159
OK,130,16,619,130,2014-08-02T17:40:00,2,20914389,193159
OK,101,21,619,101,2014-08-02T17:45:00,0,20914838,193159
OK,101,21,619,101,2014-08-02T17:50:00,0,20915287,193159
OK,51,43,619,51,2014-08-02T17:55:00,1,20915736,193159
OK,51,43,619,51,2014-08-02T18:00:00,1,20916185,193159
OK,51,43,619,51,2014-08-02T18:05:00,0,20916634,193159
OK,51,43,619,51,2014-08-02T18:10:00,0,20917083,193159
OK,51,43,619,51,2014-08-02T18:15:00,0,20917532,193159
OK,51,43,619,51,2014-08-02T18:20:00,0,20917981,193159
OK,51,43,619,51,2014-08-02T18:25:00,0,20918430,193159
OK,51,43,619,51,2014-08-02T18:30:00,0,20918879,193159
OK,51,43,619,51,2014-08-02T18:35:00,0,20919328,193159
OK,51,43,619,51,2014-08-02T18:40:00,0,20919777,193159
OK,51,43,619,51,2014-08-02T18:45:00,0,20920226,193159
OK,51,43,619,51,2014-08-02T18:50:00,0,20920675,193159
OK,51,43,619,51,2014-08-02T18:55:00,0,20921124,193159
OK,51,43,619,51,2014-08-02T19:00:00,0,20921573,193159
OK,37,59,619,37,2014-08-02T19:05:00,1,20922022,193159
OK,37,59,619,37,2014-08-02T19:10:00,0,20922471,193159